Content
SEND FEEDBACK

Daily
Averages
Monthly
Summary
United States of America

ST. LOUIS, MISSOURI


Home > North America > United States > Missouri
Elevation: 535 feet     Latitude: 38 45N     Longitude: 090 22W

WEATHER
 
SELECT A DAY
Number of Records: 196,207;   Date Range: 1/1/95 - 7/7/14
 
SHARE

PRINT THIS DATA

[ ← Previous Day ]
WEATHER ALMANAC - JUNE 21, 2013
[ Next Day → ]
[ °C ]   °F
Weather ElementAverageHighLow
Temperature83.2 °F91.9 °F (2:54 pm)72 °F (3:54 am)
Dewpoint69.9 °F73 °F (3:54 pm)66.9 °F (2:54 am)
Humidity65.1 %84 % (3:54 am)52 % (2:54 pm)
Barometer30.03 in30.07 in (6:54 am)29.97 in (7:54 pm)
Wind Speed6.7 mph11.5 mph (9:54 am)
Wind Gust19.6 mph (9:54 am)
Weather ElementAverage
Visibility10 mi
Wind DirectionSSE (167 °)

Weather ElementTotal
Precipitation---
Cooling Degree Days17 (Base 65)
Growing Degree Days32 (Base 50)
Averaged from 23 records on June 21, 2013
WEATHER CONDITIONS BREAKOUT
WIND DIRECTION BREAKOUT
WEATHER BY HOUR - JUNE 21, 2013
[ °C ]   °F
Local TimeTemperatureDewpointHumidityBarometerVisibilityWind DirectionWind SpeedGust SpeedPrecipitationEventsConditions
1:54 AM73.9 °F68.0 °F82 %30.05 in10.0 miSSE (160°)3.5 mphPartly Cloudy
2:54 AM75.0 °F66.9 °F76 %30.05 in10.0 miSSE (160°)4.6 mphMostly Cloudy
3:54 AM72.0 °F66.9 °F84 %30.04 in10.0 miSSE (160°)4.6 mphClear
4:54 AM73.9 °F66.9 °F79 %30.04 in10.0 miSouth (170°)4.6 mphClear
5:54 AM72.0 °F66.9 °F84 %30.05 in10.0 miSSE (160°)4.6 mphClear
6:54 AM75.9 °F66.9 °F74 %30.07 in10.0 miSouth (170°)3.5 mphClear
7:54 AM79.0 °F66.9 °F66 %30.07 in10.0 miSSW (210°)5.8 mph16.1 mphClear
8:54 AM82.0 °F68.0 °F62 %30.07 in10.0 miSouth (190°)5.8 mphScattered Clouds
9:54 AM84.9 °F70.0 °F61 %30.05 in10.0 miSSW (200°)11.5 mph19.6 mphScattered Clouds
10:54 AM87.1 °F71.1 °F59 %30.06 in10.0 miSSW (200°)10.4 mphClear
11:54 AM88.0 °F71.1 °F57 %30.05 in10.0 miSSW (200°)10.4 mphClear
12:54 PM90.0 °F72.0 °F55 %30.04 in10.0 miSSW (210°)9.2 mphPartly Cloudy
1:54 PM91.0 °F72.0 °F53 %30.03 in10.0 miSSW (210°)10.4 mphScattered Clouds
2:54 PM91.9 °F72.0 °F52 %30.03 in10.0 miSSW (200°)9.2 mph17.3 mphMostly Cloudy
3:54 PM90.0 °F73.0 °F57 %30.00 in10.0 miSSE (160°)8.1 mphScattered Clouds
4:54 PM91.0 °F73.0 °F55 %29.99 in10.0 miSouth (190°)9.2 mph16.1 mphClear
5:54 PM90.0 °F72.0 °F55 %30.00 in10.0 miSouth (180°)8.1 mphScattered Clouds
6:54 PM89.1 °F73.0 °F59 %29.99 in10.0 miSouth (180°)3.5 mphPartly Cloudy
7:54 PM86.0 °F72.0 °F63 %29.97 in10.0 miVariable6.9 mphClear
8:54 PM84.9 °F71.1 °F63 %29.99 in10.0 miSSE (150°)6.9 mphClear
9:54 PM82.9 °F70.0 °F65 %30.00 in10.0 miSouth (170°)8.1 mphClear
10:54 PM82.0 °F70.0 °F67 %30.00 in10.0 miSSW (210°)5.8 mphClear
11:54 PM80.1 °F69.1 °F69 %30.03 in10.0 miCalmClear
Hourly data recorded from KSUS, located miles away from St. Louis, Missouri







STORIES FROM OUR PARTNERS